Location: ????????
(55.6189°N, 38.3031°E)
Time: 08:18:32
(UTC+00:00)

Cosmos 1833 Rocket - Pass Details

Date: 15 November 2019
Orbit: 832 x 840 km, 71.0° (Epoch: 14 December)

Event Time Altitude Azimuth Distance (km) Brightness Sun altitude
Exits shadow 03:30:43 14° 261° (W) 2,167 4.3 -12.4°
Maximum altitude 03:35:00 35° 322° (NW) 1,321 3.3 -11.8°
Drops below altitude 10° 03:40:09 10° 28° (NNE) 2,459 5.3 -11.1°
Sets 03:42:49 0° 37° (NE) 3,398 6.1 -10.8°
